Greenville, AL

11:59 AM CDT on March 30, 2017 (GMT -0500)
Greenville Municipal

Weather History for KPRN - January, 2014

Change the Weather History Date:

Friday, January 10, 2014

  Actual Average Record
Temperature  
Mean Temperature 54 °F -  
Max Temperature 64 °F 55 °F 82 °F (1937)
Min Temperature 46 °F 36 °F 6 °F (1970)
Degree Days  
Heating Degree Days 11    
Growing Degree Days 4 (Base 50)    
Moisture  
Dew Point 53 °F    
Average Humidity 96    
Maximum Humidity 100    
Minimum Humidity 93    
Precipitation  
Precipitation 0.07 in - - ()
Sea Level Pressure  
Sea Level Pressure 30.07 in    
Wind  
Wind Speed 4 mph (ESE)    
Max Wind Speed 9 mph    
Max Gust Speed 16 mph    
Visibility 3 miles    
Events Fog , Rain , Thunderstorm    
Averages and records for this station are not official NWS values.
T = Trace of Precipitation, MM = Missing Value Source: NWS Daily Summary

Daily Weather History Graph

Daily Weather History Graph

Search for Another Location

Airport or City:

Trip Planner

Search our weather history database for the weather conditions in past years. The results will help you decide how hot, cold, wet, or windy it might be!

Date:

Astronomy

Jan. 10, 2014 Rise Set
Actual Time 6:47 AM CST 5:00 PM CST
Civil Twilight 6:20 AM CST 5:27 PM CST
Nautical Twilight 5:50 AM CST 5:57 PM CST
Astronomical Twilight 5:21 AM CST 6:27 PM CST
Moon 12:59 PM CST (1/10) 2:00 AM CST (1/10)
Length of Visible Light 11h 06m
Length of Day
10h 13m
Waxing Gibbous, 75% of the Moon is Illuminated
Jan 10
Waxing Gibbous
Jan 15
Full
Jan 23
Last Quarter
Jan 30
New
Feb 6
First Quarter

Hourly Weather History & Observations

Time (CST) Temp. Windchill Dew Point Humidity Pressure Visibility Wind Dir Wind Speed Gust Speed Precip Events Conditions
12:56 AM 46.0 °F 44.8 °F 45.0 °F 96% 30.25 in 2.5 mi NE 3.5 mph - 0.00 in   Overcast
1:56 AM 46.0 °F 44.8 °F 44.1 °F 93% 30.24 in 2.5 mi NE 3.5 mph - 0.01 in   Overcast
2:07 AM 46.4 °F 45.2 °F 44.6 °F 93% 30.23 in 3.0 mi NE 3.5 mph - N/A   Overcast
2:56 AM 46.0 °F 43.9 °F 44.1 °F 93% 30.22 in 3.0 mi NE 4.6 mph - N/A   Overcast
3:09 AM 46.4 °F 45.2 °F 44.6 °F 93% 30.22 in 2.5 mi NE 3.5 mph - N/A   Overcast
3:35 AM 46.4 °F 43.5 °F 44.6 °F 93% 30.21 in 3.0 mi NE 5.8 mph - N/A   Overcast
3:56 AM 46.0 °F 44.8 °F 45.0 °F 96% 30.20 in 3.0 mi ENE 3.5 mph - N/A   Overcast
4:56 AM 46.0 °F 43.9 °F 45.0 °F 96% 30.19 in 2.5 mi ENE 4.6 mph - N/A   Overcast
5:03 AM 46.4 °F - 44.6 °F 93% 30.18 in 3.0 mi Calm Calm - N/A   Overcast
5:56 AM 46.9 °F - 45.0 °F 93% 30.18 in 4.0 mi ENE 3.5 mph - N/A   Overcast
6:56 AM 46.9 °F - 45.0 °F 93% 30.18 in 4.0 mi East 3.5 mph - N/A   Overcast
7:08 AM 46.4 °F 44.3 °F 44.6 °F 93% 30.18 in 1.8 mi ENE 4.6 mph - 0.01 in   Overcast
7:31 AM 46.4 °F 43.5 °F 46.4 °F 100% 30.18 in 0.8 mi ENE 5.8 mph - 0.01 in   Overcast
7:56 AM 46.9 °F - 46.0 °F 97% 30.18 in 0.5 mi East 4.6 mph - 0.01 in Fog Fog
8:40 AM 48.2 °F - 48.2 °F 100% 30.19 in 1.0 mi East 4.6 mph - N/A   Overcast
8:56 AM 48.9 °F - 48.0 °F 97% 30.20 in 1.0 mi East 6.9 mph - N/A   Overcast
9:56 AM 51.1 °F - 50.0 °F 96% 30.19 in 1.0 mi Calm Calm - N/A   Overcast
10:56 AM 52.0 °F - 51.1 °F 97% 30.15 in 1.5 mi SE 4.6 mph - N/A   Overcast
11:56 AM 53.1 °F - 52.0 °F 96% 30.11 in 1.2 mi SE 4.6 mph - 0.00 in Rain Light Rain
12:48 PM 53.6 °F - 53.6 °F 100% 30.07 in 5.0 mi ESE 5.8 mph - 0.01 in   Overcast
12:56 PM 54.0 °F - 53.1 °F 97% 30.06 in 6.0 mi SE 4.6 mph - 0.01 in   Overcast
1:35 PM 55.4 °F - 53.6 °F 94% 30.04 in 2.5 mi ESE 5.8 mph - 0.00 in Rain Light Rain
1:45 PM 55.4 °F - 53.6 °F 94% 30.04 in 3.0 mi ESE 4.6 mph - 0.00 in Rain Light Rain
1:56 PM 55.9 °F - 54.0 °F 93% 30.04 in 4.0 mi ESE 4.6 mph - 0.00 in   Overcast
2:56 PM 55.9 °F - 55.0 °F 97% 30.03 in 6.0 mi SE 4.6 mph - N/A   Overcast
3:56 PM 57.0 °F - 55.0 °F 93% 30.01 in 6.0 mi East 6.9 mph - N/A   Overcast
4:21 PM 57.2 °F - 55.4 °F 94% 30.02 in 1.8 mi ESE 5.8 mph - N/A   Overcast
4:32 PM 55.4 °F - 55.4 °F 100% 30.02 in 0.5 mi ESE 4.6 mph - N/A Fog Fog
4:56 PM 55.9 °F - 55.0 °F 97% 30.02 in 0.5 mi SE 3.5 mph - 0.00 in Fog , Rain Light Rain
5:16 PM 55.4 °F - 55.4 °F 100% 30.02 in 1.0 mi SE 3.5 mph - 0.00 in   Mist
5:56 PM 55.9 °F - 55.0 °F 97% 30.01 in 1.8 mi SE 4.6 mph - 0.00 in   Overcast
6:08 PM 55.4 °F - 55.4 °F 100% 30.01 in 2.0 mi SE 3.5 mph - 0.01 in Rain Light Rain
6:22 PM 55.4 °F - 55.4 °F 100% 30.01 in 1.8 mi SE 4.6 mph - 0.01 in   Overcast
6:56 PM 55.9 °F - 55.0 °F 97% 30.00 in 1.0 mi SE 3.5 mph - 0.01 in   Mist
7:56 PM 55.9 °F - 55.0 °F 97% 30.00 in 0.5 mi Calm Calm - 0.00 in Fog Fog
8:56 PM 57.0 °F - 55.9 °F 96% 29.98 in 0.5 mi Calm Calm - 0.01 in Fog , Rain Light Rain
9:05 PM 57.2 °F - 55.4 °F 94% 29.99 in 0.8 mi Calm Calm - 0.00 in Rain , Thunderstorm Light Thunderstorms and Rain
9:18 PM 57.2 °F - 55.4 °F 94% 29.98 in 1.0 mi SE 3.5 mph - 0.01 in Rain Light Rain
9:28 PM 57.2 °F - 57.2 °F 100% 29.98 in 3.0 mi SSE 3.5 mph - 0.01 in Rain Light Rain
9:39 PM 57.2 °F - 57.2 °F 100% 29.97 in 1.8 mi SSE 4.6 mph - 0.01 in   Overcast
9:52 PM 59.0 °F - 57.2 °F 94% 29.95 in 0.5 mi SE 5.8 mph - 0.01 in Fog Fog
9:56 PM 59.0 °F - 57.9 °F 96% 29.94 in 0.5 mi ESE 6.9 mph - 0.01 in Fog , Rain Light Rain
10:15 PM 60.8 °F - 59.0 °F 94% 29.96 in 1.2 mi South 5.8 mph - 0.00 in Thunderstorm Overcast
10:29 PM 60.8 °F - 60.8 °F 100% 29.96 in 3.0 mi South 8.1 mph - 0.00 in Thunderstorm Overcast
10:36 PM 62.6 °F - 60.8 °F 94% 29.95 in 7.0 mi South 8.1 mph - 0.01 in Rain Light Rain
10:48 PM 62.6 °F - 60.8 °F 94% 29.95 in 9.0 mi South 6.9 mph - 0.01 in Rain , Thunderstorm Light Thunderstorms and Rain
10:56 PM 62.1 °F - 61.0 °F 96% 29.94 in 10.0 mi South 4.6 mph - 0.01 in Rain , Thunderstorm Light Thunderstorms and Rain
11:03 PM 62.6 °F - 60.8 °F 94% 29.94 in 10.0 mi SSE 8.1 mph - 0.00 in   Overcast
11:56 PM 64.0 °F - 63.0 °F 96% 29.91 in 4.0 mi South 9.2 mph 16.1 mph 0.00 in   Overcast